Location: Unspecified
(0.0000°N, 0.0000°E)
Time: 05:02:33
(UTC+00:00)

JUGNU - Pass Details

Date: 08 December 2017
Orbit: 837 x 864 km, 20.0° (Epoch: 16 January)

Event Time Altitude Azimuth Distance (km) Brightness Sun altitude
Exits shadow 04:33:46 27° 317° (NW) 1,550 ? -18.0°
Maximum altitude 04:35:08 30° 341° (NNW) 1,458 ? -17.6°
Drops below altitude 10° 04:40:16 10° 42° (NE) 2,465 ? -16.5°
Sets 04:43:09 0° 52° (NE) 3,404 ? -15.8°
